BMCB-13 Weather Reports


Display with metric or nautical units.
time (UTC)temp
F
wind
direction
speed
MPH
gust
MPH
rain 1hr
in
rain 24hr
in
rain mn
in
humidity
%
barometer
mb
20260502213047 58 99 2.0 3.0 0.00 0.48 0.48 93 1012.3
20260502211046 57 106 1.0 3.0 0.00 0.48 0.48 94 1012.4
20260502210049 57 101 2.0 3.0 0.00 0.48 0.48 94 1012.4
20260502205047 57 81 2.0 4.0 0.00 0.48 0.48 94 1012.4
20260502204047 58 81 2.0 4.0 0.00 0.48 0.48 93 1012.5
20260502203048 58 123 3.0 6.0 0.00 0.48 0.48 93 1012.5
20260502201054 58 130 6.0 9.0 0.00 0.48 0.48 93 1012.7
20260502195046 58 130 4.0 8.0 0.02 0.48 0.48 95 1012.8
20260502193046 58 159 1.0 4.0 0.04 0.48 0.48 96 1012.7
20260502192047 58 43 2.0 4.0 0.05 0.48 0.48 94 1012.7
20260502191050 58 51 2.0 4.0 0.06 0.48 0.48 94 1012.7
20260502190048 58 51 2.0 4.0 0.07 0.48 0.48 94 1012.9
20260502184046 58 341 2.0 4.0 0.27 0.46 0.46 93 1013.4
20260502183045 58 39 3.0 7.0 0.33 0.46 0.46 93 1013.5
20260502181047 58 36 4.0 6.0 0.37 0.43 0.43 92 1013.5
20260502164046 66 28 2.0 4.0 0.06 0.06 0.06 84 1012.8
20260502162044 70 162 0.0 1.0 0.04 0.04 0.04 73 1013.2
20260502161049 70 162 0.0 1.0 0.01 0.01 0.01 69 1013.2
20260502152046 74 290 4.0 6.0 0.00 0.00 0.00 51 1013.4
20260502151047 75 252 4.0 10.0 0.00 0.00 0.00 53 1013.7
20260502123044 75 255 8.0 18.0 0.00 0.00 0.00 53 1015.7
20260502122045 75 253 8.0 15.0 0.00 0.00 0.00 53 1015.9
20260502121043 75 257 8.0 18.0 0.00 0.00 0.00 53 1016.1
20260502114045 74 232 5.0 10.0 0.00 0.00 0.00 54 1016.3
20260502113045 74 232 5.0 10.0 0.00 0.00 0.00 55 1016.5
20260502112044 74 252 7.0 13.0 0.00 0.00 0.00 54 1016.6
20260502110043 74 234 6.0 14.0 0.00 0.00 0.00 55 1016.7
20260502105046 74 245 7.0 13.0 0.00 0.00 0.00 54 1016.8
20260502104045 73 157 5.0 11.0 0.00 0.00 0.00 54 1017.0
20260502103044 73 198 6.0 14.0 0.00 0.00 0.00 55 1017.1
20260502102044 73 225 5.0 12.0 0.00 0.00 0.00 55 1017.2
20260502101046 72 225 5.0 12.0 0.00 0.00 0.00 55 1017.3
20260502091045 69 194 5.0 10.0 0.00 0.00 0.00 55 1017.9
20260502071045 60 234 3.0 5.0 0.00 0.00 0.00 59 1018.5
20260502070042 60 238 4.0 7.0 0.00 0.00 0.00 57 1018.5
20260502065047 60 238 4.0 7.0 0.00 0.00 0.00 56 1018.6
20260502064045 60 234 3.0 6.0 0.00 0.00 0.00 55 1018.6
20260502063046 61 214 1.0 4.0 0.00 0.00 0.00 53 1018.6
20260502062044 60 199 2.0 4.0 0.00 0.00 0.00 53 1018.5
20260502061044 59 185 2.0 4.0 0.00 0.00 0.00 53 1018.5
20260502060046 58 185 2.0 4.0 0.00 0.00 0.00 53 1018.5
20260502055044 58 249 2.0 4.0 0.00 0.00 0.00 52 1018.4
20260502053047 57 248 2.0 4.0 0.00 0.00 0.00 52 1018.5
20260502052041 57 212 2.0 5.0 0.00 0.00 0.00 51 1018.4
20260502051042 56 212 2.0 5.0 0.00 0.00 0.00 52 1018.5
20260502050044 56 184 3.0 6.0 0.00 0.00 0.00 52 1018.5
20260502045043 56 165 3.0 5.0 0.00 0.00 0.00 53 1018.3
20260502044044 55 165 3.0 5.0 0.00 0.00 0.00 52 1018.2
20260502041042 51 88 2.0 4.0 0.00 0.00 0.00 61 1018.4
20260502040044 51 88 2.0 4.0 0.00 0.00 0.00 64 1018.6
20260502035046 53 251 4.0 6.0 0.00 0.00 0.00 58 1018.7
20260502034042 53 251 4.0 6.0 0.00 0.00 0.00 59 1018.8
20260502033044 52 267 2.0 3.0 0.00 0.00 0.00 62 1018.7
20260502032047 52 272 4.0 7.0 0.00 0.00 0.00 61 1018.8
20260502031044 52 209 2.0 7.0 0.00 0.00 0.00 59 1018.7
20260502030045 52 183 1.0 3.0 0.00 0.00 0.00 56 1018.5
20260502025043 52 182 0.0 2.0 0.00 0.00 0.00 57 1018.7
20260502024042 51 182 0.0 2.0 0.00 0.00 0.00 60 1018.7
20260502023043 51 161 1.0 2.0 0.00 0.00 0.00 61 1018.7
20260502022043 50 134 1.0 2.0 0.00 0.00 0.00 61 1018.8
20260502021047 50 126 1.0 2.0 0.00 0.00 0.00 61 1018.9
20260502020045 51 94 1.0 3.0 0.00 0.00 0.00 60 1019.0
20260502015045 51 94 1.0 3.0 0.00 0.00 0.00 57 1019.0
20260502014044 52 109 1.0 3.0 0.00 0.00 0.00 56 1019.0
20260502013046 51 132 1.0 2.0 0.00 0.00 0.00 56 1019.1
20260502012045 51 155 1.0 3.0 0.00 0.00 0.00 57 1019.3
20260502011045 52 176 1.0 2.0 0.00 0.00 0.00 55 1019.4
20260502010044 53 176 1.0 2.0 0.00 0.00 0.00 54 1019.5
20260502005046 53 185 1.0 3.0 0.00 0.00 0.00 52 1019.5
20260502004044 54 131 0.0 2.0 0.00 0.00 0.00 51 1019.5
20260502003045 54 95 1.0 2.0 0.00 0.00 0.00 49 1019.6
20260502002045 54 104 1.0 2.0 0.00 0.00 0.00 49 1019.6
20260501235047 55 94 2.0 3.0 0.00 0.00 0.00 48 1019.9
20260501234047 56 84 1.0 3.0 0.00 0.00 0.00 47 1019.9
20260501232046 56 126 2.0 5.0 0.00 0.00 0.00 47 1020.2
20260501230045 57 170 1.0 3.0 0.00 0.00 0.00 45 1020.3
20260501225048 58 124 1.0 3.0 0.00 0.00 0.00 44 1020.4
20260501224047 59 135 2.0 5.0 0.00 0.00 0.00 42 1020.4
20260501223048 59 144 3.0 6.0 0.00 0.00 0.00 42 1020.4
20260501221048 59 136 2.0 3.0 0.00 0.00 0.00 42 1020.5
20260501220044 59 127 2.0 3.0 0.00 0.00 0.00 41 1020.4
20260501215050 59 127 2.0 3.0 0.00 0.00 0.00 41 1020.4